When you browse on this site, cookies collect data to enhance your experience and personalize the content and advertising you see.
Visit our Privacy Policy to learn more. By continuing to use the site, you agree to this use of cookies and data.
  • In Spain
  • List of Countries
  • For 7 days
  • Water Temperature
  • Weather Map
  • Weather Widgets
  • user-avatar
    Login

    Hourly Weather Semey

    Today, 20 August, Tuesday

    Time Temperature Precipitation Wind Pressure Humidity
    00:00 +21°C° 0.1 mm 3 mps 744 mmHg 69%
    01:00 +20°C° 0.1 mm 4 mps 744 mmHg 74%
    02:00 +20°C° 0.1 mm 4 mps 744 mmHg 80%
    03:00 +19°C° 0.1 mm 4 mps 744 mmHg 82%
    04:00 +19°C° 0.1 mm 4 mps 744 mmHg 83%
    05:00 +18°C° 0.1 mm 3 mps 744 mmHg 85%
    06:00 +18°C° 0.2 mm 3 mps 744 mmHg 83%
    07:00 +18°C° 0.2 mm 3 mps 745 mmHg 80%
    08:00 +18°C° 0.2 mm 4 mps 745 mmHg 78%
    09:00 +20°C° 0.1 mm 3 mps 745 mmHg 68%
    10:00 +21°C° 0.1 mm 3 mps 745 mmHg 59%
    11:00 +22°C° 0.1 mm 3 mps 745 mmHg 49%
    12:00 +24°C° 0 mm 3 mps 745 mmHg 43%
    13:00 +25°C° 0 mm 3 mps 745 mmHg 37%
    14:00 +26°C° 0 mm 3 mps 744 mmHg 31%
    15:00 +26°C° 0 mm 4 mps 745 mmHg 29%
    16:00 +26°C° 0 mm 4 mps 745 mmHg 28%
    17:00 +27°C° 0 mm 5 mps 745 mmHg 27%
    18:00 +25°C° 0 mm 4 mps 745 mmHg 31%
    19:00 +22°C° 0 mm 4 mps 745 mmHg 35%
    20:00 +20°C° 0 mm 3 mps 745 mmHg 39%
    21:00 +20°C° 0 mm 3 mps 744 mmHg 43%
    22:00 +19°C° 0 mm 2 mps 744 mmHg 47%
    23:00 +18°C° 0 mm 2 mps 744 mmHg 51%

    Tomorrow, 21 August, Wednesday

    Time Temperature Precipitation Wind Pressure Humidity
    00:00 +17°C° 0 mm 2 mps 744 mmHg 53%
    01:00 +18°C° 0 mm 1 mps 743 mmHg 55%
    02:00 +16°C° 0 mm 1 mps 743 mmHg 58%
    03:00 +16°C° 0 mm 1 mps 743 mmHg 59%
    04:00 +15°C° 0 mm 1 mps 743 mmHg 61%
    05:00 +15°C° 0 mm 1 mps 743 mmHg 63%
    06:00 +18°C° 0 mm 1 mps 743 mmHg 57%
    07:00 +20°C° 0 mm 1 mps 742 mmHg 51%
    08:00 +22°C° 0 mm 1 mps 742 mmHg 45%
    09:00 +23°C° 0 mm 1 mps 742 mmHg 39%
    10:00 +24°C° 0 mm 2 mps 741 mmHg 34%
    11:00 +25°C° 0 mm 2 mps 741 mmHg 28%
    12:00 +26°C° 0 mm 2 mps 740 mmHg 26%
    13:00 +26°C° 0 mm 2 mps 740 mmHg 24%
    14:00 +26°C° 0 mm 2 mps 739 mmHg 22%
    15:00 +26°C° 0 mm 2 mps 739 mmHg 22%
    16:00 +26°C° 0 mm 2 mps 739 mmHg 22%
    17:00 +26°C° 0 mm 2 mps 739 mmHg 22%
    18:00 +25°C° 0 mm 3 mps 739 mmHg 28%
    19:00 +22°C° 0 mm 3 mps 738 mmHg 34%
    20:00 +20°C° 0 mm 4 mps 738 mmHg 39%
    21:00 +19°C° 0 mm 5 mps 738 mmHg 48%
    22:00 +17°C° 0 mm 7 mps 737 mmHg 58%
    23:00 +16°C° 0 mm 8 mps 737 mmHg 67%

    Day after tomorrow, 22 August, Thursday

    Time Temperature Precipitation Wind Pressure Humidity
    00:00 +15°C° 0.2 mm 7 mps 737 mmHg 69%
    01:00 +15°C° 0.2 mm 7 mps 736 mmHg 72%
    02:00 +15°C° 0.2 mm 6 mps 736 mmHg 75%
    03:00 +14°C° 1.3 mm 4 mps 736 mmHg 79%
    04:00 +14°C° 1.3 mm 3 mps 736 mmHg 83%
    05:00 +15°C° 1.3 mm 2 mps 736 mmHg 86%
    06:00 +15°C° 0.1 mm 2 mps 736 mmHg 85%
    07:00 +15°C° 0.1 mm 2 mps 736 mmHg 83%
    08:00 +16°C° 0.1 mm 3 mps 736 mmHg 81%
    09:00 +16°C° 0.1 mm 3 mps 737 mmHg 77%
    10:00 +17°C° 0.1 mm 3 mps 737 mmHg 74%
    11:00 +18°C° 0.1 mm 4 mps 737 mmHg 70%
    12:00 +19°C° 0.1 mm 4 mps 737 mmHg 60%
    13:00 +20°C° 0.1 mm 5 mps 737 mmHg 51%
    14:00 +21°C° 0.1 mm 6 mps 737 mmHg 41%
    15:00 +21°C° 0 mm 6 mps 738 mmHg 41%
    16:00 +21°C° 0 mm 6 mps 738 mmHg 40%
    17:00 +21°C° 0 mm 6 mps 738 mmHg 39%
    18:00 +20°C° 0 mm 5 mps 739 mmHg 43%
    19:00 +18°C° 0 mm 3 mps 739 mmHg 46%
    20:00 +17°C° 0 mm 2 mps 739 mmHg 49%
    21:00 +17°C° 0 mm 2 mps 739 mmHg 52%
    22:00 +16°C° 0 mm 2 mps 739 mmHg 54%
    23:00 +16°C° 0 mm 2 mps 740 mmHg 57%

    23 August, Friday

    Time Temperature Precipitation Wind Pressure Humidity
    00:00 +16°C° 0 mm 2 mps 740 mmHg 59%
    01:00 +16°C° 0 mm 2 mps 740 mmHg 61%
    02:00 +15°C° 0 mm 2 mps 740 mmHg 63%
    03:00 +15°C° 0 mm 2 mps 740 mmHg 66%
    04:00 +14°C° 0 mm 3 mps 740 mmHg 69%
    05:00 +13°C° 0 mm 3 mps 740 mmHg 72%
    06:00 +16°C° 0 mm 3 mps 741 mmHg 68%
    07:00 +17°C° 0 mm 4 mps 741 mmHg 64%
    08:00 +19°C° 0 mm 4 mps 741 mmHg 60%
    09:00 +20°C° 0.1 mm 4 mps 741 mmHg 54%
    10:00 +21°C° 0.1 mm 5 mps 741 mmHg 49%
    11:00 +22°C° 0.1 mm 5 mps 741 mmHg 44%
    12:00 +23°C° 0 mm 5 mps 741 mmHg 41%
    13:00 +23°C° 0 mm 5 mps 741 mmHg 39%
    14:00 +25°C° 0 mm 5 mps 741 mmHg 36%
    15:00 +25°C° 0 mm 5 mps 741 mmHg 37%
    16:00 +23°C° 0 mm 5 mps 741 mmHg 38%
    17:00 +23°C° 0 mm 5 mps 742 mmHg 39%
    18:00 +22°C° 0 mm 4 mps 742 mmHg 41%
    19:00 +21°C° 0 mm 3 mps 742 mmHg 43%
    20:00 +21°C° 0 mm 3 mps 743 mmHg 45%
    21:00 +20°C° 0 mm 2 mps 743 mmHg 49%
    22:00 +19°C° 0 mm 2 mps 743 mmHg 53%
    23:00 +19°C° 0 mm 1 mps 743 mmHg 58%

    24 August, Saturday

    Time Temperature Precipitation Wind Pressure Humidity
    00:00 +18°C° 0 mm 2 mps 743 mmHg 57%
    01:00 +18°C° 0 mm 2 mps 743 mmHg 57%
    02:00 +18°C° 0 mm 2 mps 743 mmHg 56%
    03:00 +18°C° 0 mm 2 mps 744 mmHg 58%
    04:00 +17°C° 0 mm 2 mps 744 mmHg 60%
    05:00 +17°C° 0 mm 2 mps 744 mmHg 61%
    06:00 +19°C° 0 mm 3 mps 744 mmHg 56%
    07:00 +20°C° 0 mm 3 mps 745 mmHg 50%
    08:00 +22°C° 0 mm 4 mps 745 mmHg 44%
    09:00 +23°C° 0 mm 4 mps 745 mmHg 41%
    10:00 +25°C° 0 mm 4 mps 745 mmHg 37%
    11:00 +25°C° 0 mm 4 mps 746 mmHg 34%
    12:00 +26°C° 0 mm 4 mps 746 mmHg 34%
    13:00 +26°C° 0 mm 4 mps 746 mmHg 34%
    14:00 +26°C° 0 mm 4 mps 746 mmHg 34%
    15:00 +26°C° 0 mm 4 mps 746 mmHg 34%
    16:00 +26°C° 0 mm 3 mps 746 mmHg 34%
    17:00 +26°C° 0 mm 3 mps 746 mmHg 34%
    18:00 +24°C° 0 mm 2 mps 746 mmHg 37%
    19:00 +23°C° 0 mm 2 mps 746 mmHg 41%
    20:00 +21°C° 0 mm 1 mps 746 mmHg 44%
    21:00 +20°C° 0 mm 2 mps 746 mmHg 44%
    22:00 +20°C° 0 mm 3 mps 746 mmHg 44%
    23:00 +20°C° 0 mm 3 mps 746 mmHg 44%

    25 August, Sunday

    Time Temperature Precipitation Wind Pressure Humidity
    00:00 +20°C° 0 mm 3 mps 745 mmHg 46%
    01:00 +19°C° 0 mm 3 mps 745 mmHg 47%
    02:00 +19°C° 0 mm 3 mps 745 mmHg 48%
    03:00 +19°C° 0 mm 3 mps 745 mmHg 47%
    04:00 +19°C° 0 mm 3 mps 745 mmHg 47%
    05:00 +20°C° 0 mm 3 mps 745 mmHg 46%
    06:00 +21°C° 0 mm 3 mps 745 mmHg 45%
    07:00 +24°C° 0 mm 3 mps 746 mmHg 43%
    08:00 +25°C° 0 mm 3 mps 746 mmHg 41%
    09:00 +26°C° 0 mm 2 mps 746 mmHg 40%
    10:00 +28°C° 0 mm 2 mps 746 mmHg 38%
    11:00 +29°C° 0 mm 2 mps 746 mmHg 37%
    12:00 +29°C° 0 mm 2 mps 745 mmHg 35%
    13:00 +30°C° 0 mm 2 mps 745 mmHg 33%
    14:00 +31°C° 0 mm 2 mps 745 mmHg 31%
    15:00 +30°C° 0 mm 3 mps 745 mmHg 29%
    16:00 +30°C° 0 mm 3 mps 744 mmHg 28%
    17:00 +30°C° 0 mm 4 mps 744 mmHg 26%
    18:00 +28°C° 0 mm 4 mps 744 mmHg 27%
    19:00 +26°C° 0 mm 4 mps 744 mmHg 29%
    20:00 +25°C° 0 mm 5 mps 745 mmHg 30%
    21:00 +23°C° 0 mm 4 mps 744 mmHg 33%
    22:00 +22°C° 0 mm 4 mps 744 mmHg 37%
    23:00 +21°C° 0 mm 4 mps 744 mmHg 40%
    Show more